Retour au catalogue

WILDFIRE 10

ActifSciencePO
NORAD 57766·PAYLOAD·🇺🇸 United States

Lancé Sep 2, 2023 depuis Vandenberg Space Force Base

Loading…

Prochains Passages (prochaines 24 heures)

TLE

FraisSource: Space-Track

Époque: Sep 13, 2026, 13:47 UTC

1 57766U 23133K   26256.57460762  .00000062  00000-0  44568-4 0  9990
2 57766  80.9996 282.6250 0007515 122.0371 238.1516 13.85637649153280

Suivez WILDFIRE 10 en temps réel avec AllMySat

Download on the App Store